Location: �perlecques
(50.8057°N, 2.1521°E)
Time: 13:29:15
(UTC+00:00)

EO-88 - Visible Passes

Search period start: 27 March 2023 00:00
Search period end: 06 April 2023 00:00
Orbit: 397 x 400 km, 97.2° (Epoch: 26 March)

Date Brightness Start Highest point End Pass type
(mag) Time Alt. Az. Time Alt. Az. Time Alt. Az.
27 Mar ? 20:53:33 18° N 20:53:33 18° N 20:54:34 10° N visible
28 Mar ? 21:34:47 17° NNW 21:34:47 17° NNW 21:35:37 10° NNW visible
29 Mar ? 20:43:16 18° NNE 20:43:16 18° NNE 20:44:25 10° N visible
30 Mar ? 21:24:10 20° NNW 21:24:10 20° NNW 21:25:18 10° NNW visible
31 Mar ? 20:32:20 17° NNE 20:32:20 17° NNE 20:33:32 10° NNE visible
31 Mar ? 22:04:52 13° NW 22:04:52 13° NW 22:05:20 10° NW visible
01 Apr ? 21:12:53 24° N 21:12:53 24° N 21:14:16 10° N visible
02 Apr ? 20:20:44 15° NE 20:20:44 15° NE 20:21:53 10° NNE visible
02 Apr ? 21:53:15 17° NW 21:53:15 17° NW 21:54:11 10° NNW visible
03 Apr ? 21:00:56 26° NNE 21:00:56 26° NNE 21:02:32 10° N visible
04 Apr ? 20:08:28 12° NE 20:08:28 12° NE 20:09:20 10° NE visible
04 Apr ? 21:40:58 22° NNW 21:40:58 22° NNW 21:42:18 10° NNW visible
05 Apr ? 20:48:20 25° NNE 20:48:20 25° NNE 20:50:04 10° N visible
05 Apr ? 22:20:49 11° NW 22:20:49 11° NW 22:21:04 10° NW visible
